Regional Weather Roundup
Issued by NWS

Home | Current Version | Previous Version | Graphics & Text | Print | Product List | Glossary On
Versions: 1 2 3 4 5 6 7 8 9 10 11 12 13 14 15 16 17 18 19 20 21 22 23 24 25 26 27 28 29 30 31 32 33 34 35 36 37 38 39 40 41 42 43 44 45 46 47 48 49 50
644
ASUS43 KIND 211759
RWRIN

WEATHER ROUNDUP FOR INDIANA
NATIONAL WEATHER SERVICE INDIANAPOLIS IN
200 PM EDT THU MAY 21 2015

NOTE: "FAIR" INDICATES FEW OR NO CLOUDS BELOW 12,000 FEET WITH NO
SIGNIFICANT WEATHER AND/OR OBSTRUCTIONS TO VISIBILITY.

* - STATION DOES NOT REPORT WEATHER SUCH AS PRECIPITATION OR FOG.

+ - STATION NOT QUALITY CONTROLLED BY THE NATIONAL WEATHER SERVICE.
    USE DATA WITH CAUTION...ESPECIALLY DEWPOINT AND RELATIVE
    HUMIDITY OBSERVATIONS.

INZ001>003-010>013-019-020-211900-
NORTHWEST INDIANA

CITY           SKY/WX    TMP DP  RH WIND       PRES   REMARKS
GARY /AIRPORT/ MOSUNNY   63  39  42 W12       30.07F

$$

LMZ046-743>745-211900-
SOUTHERN LAKE MICHIGAN

STATION/POSITION TIME  TEMP    WIND        PRES    WAVE
                       AIR SEA DIR/SP/G            HT
                 (UTC) (F)     (DEG/KT/KT) (MB)    (FT)
BURNS HARBOR     1700   53     260/  5/  7 1019.0F
MICHIGAN CITY    1700   49     230/ 12/ 13   N/A
5NW MICH CITY    1700   49 50  250/  8/ 10   N/A     2

$$

INZ004-005-014>016-021>024-211900-
NORTH CENTRAL INDIANA

CITY           SKY/WX    TMP DP  RH WIND       PRES   REMARKS
ELKHART        MOSUNNY   57  41  54 W9        30.06F
GOSHEN         PTSUNNY   58  46  64 W15       30.06F
6HR MIN TEMP:  45; 6HR MAX TEMP:  58;

SOUTH BEND     MOSUNNY   58  40  51 W10       30.07F
6HR MIN TEMP:  45; 6HR MAX TEMP:  59;

WARSAW +       MOSUNNY   54  43  66 W7        30.07F

$$

INZ006>009-017-018-025>027-211900-
NORTHEAST INDIANA

CITY           SKY/WX    TMP DP  RH WIND       PRES   REMARKS
ANGOLA *+      MOSUNNY   57  43  58 NW9       30.04S
FORT WAYNE     PTSUNNY   55  41  59 NW12      30.07F
6HR MIN TEMP:  48; 6HR MAX TEMP:  55;


$$

INZ028-029-035-036-043>045-051>053-211900-
WEST CENTRAL INDIANA

CITY           SKY/WX    TMP DP  RH WIND       PRES   REMARKS
CRAWFORDSVL +  CLOUDY    55  35  48 W10       30.11S
6HR MIN TEMP:  42; 6HR MAX TEMP:  55;

GREENCASTLE +  PTSUNNY   54  37  54 NW6       30.12F
LAFAYETTE      PTSUNNY   58  42  55 NW9       30.09F
6HR MIN TEMP:  44; 6HR MAX TEMP:  58; 6HR PCP:  0.01;

TERRE HAUTE    CLOUDY    56  43  61 VRB3      30.13S
6HR MIN TEMP:  46; 6HR MAX TEMP:  56;


$$

INZ030>032-037>040-046>048-054>057-064-065-211900-
CENTRAL INDIANA

CITY           SKY/WX    TMP DP  RH WIND       PRES   REMARKS
ANDERSON       CLOUDY    54  36  50 NW12      30.12R
COLUMBUS       CLOUDY    55  37  50 NW8       30.11S
GREENWOOD *+   CLOUDY    54  37  54 NW14G23   30.11S
INDIANAPOLIS   PTSUNNY   55  40  56 N12       30.10S
6HR MIN TEMP:  48; 6HR MAX TEMP:  55;

-EAGLE CREEK   CLOUDY    54  41  61 N9        30.10F
6HR MIN TEMP:  47; 6HR MAX TEMP:  54;

KOKOMO *+        N/A     55  41  58 W8        30.09F
6HR MIN TEMP:  45; 6HR MAX TEMP:  55; 6HR PCP:  0.01;

MT COMFORT *+  CLOUDY    54  34  47 NW9G16    30.10S
SHELBYVILLE    CLOUDY    58  40  51 N10       30.09S
6HR MIN TEMP:  51; 6HR MAX TEMP:  58;


$$

INZ033-034-041-042-049-050-058-059-211900-
EAST CENTRAL INDIANA

CITY           SKY/WX    TMP DP  RH WIND       PRES   REMARKS
MUNCIE         CLOUDY    53  40  61 N12       30.08F
6HR MIN TEMP:  48; 6HR MAX TEMP:  53;


$$

INZ060-061-067>069-081>083-085>088-211900-
SOUTHWEST INDIANA

CITY           SKY/WX    TMP DP  RH WIND       PRES   REMARKS
EVANSVILLE     CLOUDY    54  44  69 NW9       30.18R
6HR MIN TEMP:  49; 6HR MAX TEMP:  56;

HUNTINGBURG *+ CLOUDY    52  43  71 N12       30.16R
6HR MIN TEMP:  48; 6HR MAX TEMP:  54;


$$

INZ062-063-066-070>080-084-089>092-211900-
SOUTH CENTRAL AND SOUTHEAST INDIANA

CITY           SKY/WX    TMP DP  RH WIND       PRES   REMARKS
BLOOMINGTON    CLOUDY    56  43  61 N8        30.12R
6HR MIN TEMP:  48; 6HR MAX TEMP:  56; 6HR PCP: TRACE;

MADISON *+     CLOUDY    54  41  62 NW6       30.11R
SEYMOUR +      CLOUDY    57  41  54 N8G16     30.10S

$$




USA.gov is the U.S. government's official web portal to all federal, state and local government web resources and services.